1st Responders/1st Detectors/Storm Spotters Weather Summary for Campbell County, KY

Forecast Maps


Reg. NEXRAD Animation


National Fire Danger: Day 1 & 2 Map

Current NWS Watch/Warnings

SPC Convective Day 1 Outlook


Day 2 Outlook

(Click images to enlarge|Page will refresh every 5 minutes)
UK Ag. Weather Center Desktop Severe Weather Service[HERE]
Campbell County, KY Hazardous Weather Outlook Webcast
(9 AM to 9 PM Mon-Fri)
[Fast]
[Dial-up]


UKAWC 1st Detectors/1st Responders Precision Weather Forecast For CAMPBELL County, Kentucky
(based on the NWS County Digital Forecast)

ISSUED AT 05:00 UTC ON SUNDAY DEC 17 2017
DAY SUNDAY
EDT 3HR 2A 3A 4A 5A 6A 7A 8A 9A 10A 11A NOON 1P 2P 3P 4P 5P 6P 7P
MAX/MIN -- -- -- -- -- -- 31° -- -- -- -- -- -- -- -- -- -- 43°
TEMP 38° 36° 34° 34° 32° 32° 31° 31° 34° 38° 38° 40° 41° 43° 43° 43° 43° 40°
SKY COVER 39% 46% 59% 65% 69% 77% 81% 83% 87% 90% 94% 98% 100% 100% 99% 98% 98% 98%
Clouds
DEW PT 27° 27° 27° 27° 27° 27° 27° 27° 29° 29° 31° 31° 31° 32° 34° 34° 34° 34°
RH 66% 67% 72% 74% 81% 81% 84% 85% 78% 72% 72% 70% 67% 64% 67% 67% 70% 76%
POP 12HR -- -- -- -- -- -- 3% -- -- -- -- -- -- -- -- -- -- --
RAIN/SNOW (liq.equ) 0.00in -- -- -- -- -- 0.00in -- -- -- -- -- 0.03in -- -- -- -- --
SNOWFALL 0in -- -- -- -- -- 0in -- -- -- -- -- 0in -- -- -- -- --
WIND SPEED(MPH) 6 5 5 5 5 5 5 5 5 5 5 6 5 6 5 5 2 5
WIND Gust(MPH) 6 5 5 5 5 5 5 5 5 5 5 6 5 6 5 5 2 5
WIND DIR SW S S S S S S S S S S S S S S S S S
DEW -- Frost Frost Frost Frost Frost Frost Frost Frost Frost -- -- -- -- -- -- -- --
HeatIndex 33 33 31 29 28 28 27 27 31 34 35 37 39 40 41 41 41 38
Snow Showers -- -- -- -- -- -- -- -- -- -- -- -- -- -- -- -- -- --
Rain Showers -- -- -- -- -- -- -- -- -- -- Slight Chance Chance Chance Chance Chance Chance Chance Chance
Drizzle -- -- -- -- -- -- -- -- -- -- -- -- -- -- -- -- -- --
WIND CHILL 34° 32° 30° 30° 28° 28° 26° 26° 30° 35° 35° 36° 38° 39° 40° 40° -- 37°
SPRAY COND
DRY COND
LIVESTOCK COLDSTRESS



DAY MONDAY TUESDAY WEDNESDAY THURSDAY FRIDAY SATURDAY
EDT 6HR 8P 9P 10P 11P MIDN 1A 2A 3A 4A 5A 6A 7A 8A 9A 10A 11A NOON 1P 2P 5P 8P 11P 2A 5A 8A 11A 2P 5P 8P 2A 8A 2P 8P 2A 8A 2P 8P 2A 8A 2P 8P 2A 8A 2P 8P
MAX/MIN -- -- -- -- -- -- -- -- -- -- -- -- 36° -- -- -- -- -- -- 49° -- -- -- -- 41° -- -- 54° -- -- 31° 43° -- -- 29° 50° -- -- 38° 49° -- -- 29° 40° --
TEMP 40° 38° 38° 38° 36° 38° 36° 36° 36° 36° 36° 36° 36° 36° 38° 40° 43° 45° 47° 49° 45° 45° 41° 43° 43° 45° 52° 52° 45° 36° 31° 41° 38° 32° 29° 47° 45° 38° 41° 47° 40° 34° 29° 38° 34°
SKY COVER 98% 97% 95% 94% 93% 92% 91% 93% 98% 100% 100% 99% 99% 98% 96% 95% 94% 91% 90% 86% 82% 65% 60% 62% 63% 62% 61% 53% 46% 36% 38% 43% 46% 37% 40% 37% 60% 75% 84% 81% 82% 72% 71% 67% 72%
Clouds
DEW PT 34° 34° 34° 34° 34° 34° 34° 34° 34° 36° 36° 36° 36° 36° 36° 38° 38° 40° 40° 40° 40° 40° 40° 40° 40° 40° 40° 38° 38° 31° 25° 25° 25° 25° 25° 31° 34° 36° 38° 38° 31° 27° 25° 23° 22°
RH 79% 81% 88% 88% 91% 89% 92% 92% 92% 95% 96% 95% 95% 99% 95% 88% 86% 79% 76% 70% 79% 82% 92% 89% 89% 82% 66% 58% 76% 81% 81% 50% 59% 72% 81% 53% 64% 95% 85% 67% 66% 75% 84% 56% 58%
POP 12HR 53% -- -- -- -- -- -- -- -- -- -- -- 19% -- -- -- -- -- -- -- 10% -- -- -- 10% -- -- -- 10% -- 10% -- 12% -- 12% -- 10% -- 38% -- 40% -- 19% -- 20%
RAIN/SNOW (liq.equ) 0.05in -- -- -- -- -- 0.01in -- -- -- -- -- 0.00in -- -- -- -- -- 0.00in -- 0.00in -- 0.00in -- 0.00in -- 0.00in -- 0.00in -- -- -- -- -- -- -- -- -- -- -- -- -- -- -- --
SNOWFALL 0in -- -- -- -- -- 0in -- -- -- -- -- 0in -- -- -- -- -- 0in -- 0in -- 0in -- 0in -- 0in -- 0in -- -- -- -- -- -- -- -- -- -- -- -- -- -- -- --
WIND SPEED(MPH) 5 5 2 2 2 2 2 2 2 2 2 2 2 5 6 7 7 7 7 7 7 7 7 7 7 8 9 8 7 6 5 5 5 6 6 6 6 7 8 9 7 5 2 2 2
WIND DIR S S S S S S SW SW SW SW SW SW SW SW SW SW SW SW SW SW SW SW SW SW SW SW W W W NW NW N E E SE S S SW SW W NW NW NW NW NW
HeatIndex 36 35 35 35 34 35 34 34 34 34 34 34 34 33 33 36 38 45 47 49 45 41 37 38 38 45 52 52 41 31 26 39 34 27 23 47 45 32 36 47 35 29 25 35 32
Snow Showers -- -- -- -- -- -- -- -- -- -- -- -- -- -- -- -- -- -- -- -- -- -- -- -- -- -- -- -- -- -- -- -- -- -- -- -- -- -- -- -- -- -- Slight Chance -- --
Rain Showers Slight Chance Slight Chance -- -- -- -- -- -- -- -- -- -- -- -- -- -- -- -- -- -- -- -- -- -- -- -- -- -- -- -- -- -- -- -- -- -- -- Slight Chance Chance Chance -- -- -- -- --
Drizzle -- -- -- -- -- -- Patchy Patchy Patchy Patchy Patchy Patchy Patchy Patchy Patchy Patchy Patchy Patchy Patchy Patchy Patchy -- -- -- -- -- -- -- -- -- -- -- -- -- -- -- -- -- -- -- -- -- -- -- --
WIND CHILL 37° 35° -- -- -- -- -- -- -- -- -- -- -- 32° 34° 35° 39° 41° -- -- 41° 41° 36° 39° 39° 41° -- -- 41° 31° 26° 38° 35° 27° 23° -- 42° 33° 36° -- 35° 30° -- -- --
SPRAY COND
DRY COND
LIVESTOCK COLDSTRESS

Click on individual weather variable above in left-hand column (ie., TEMP, RH, QPF 12HR) to view state forecast maps






NWS 48 Hr. Forecast Maps,

Regional Hourly Observations For CAMPBELL County, Kentucky
Issued at 100 AM EST SUN DEC 17 2017
NORTHEAST KENTUCKY
  
CITY           SKY/WX    TMP DP  RH WIND       PRES   REMARKS
LEXINGTON      CLOUDY    37  28  70 S7        30.21S WCI  32          
COVINGTON      PTCLDY    38  30  73 S7        30.17S WCI  33          
FRANKFORT      PTCLDY    38  27  64 S7        30.19F WCI  33          


Current NOWCAST not available:
Nowcasts are not issued routinely during fair weather. Only when
precipitation or other significant weather is occuring in this county will these
forecasts be issued. Currently, there is no short term forecast in effect.


Fire Weather Forecast For CAMPBELL County, KY
Provided by the National Weather Service:

Issued at: Sun Dec 17 01:05:02 EST 2017

CLOUD COVER                    MClear       MClear        MCldy
PRECIP TYPE                      None         None      Showers
CHANCE PRECIP (%)                   0            0           50
TEMP (24H TREND)             49 (+17)      31 (+5)           45
RH % (24H TREND)              45 (-4)      92 (+3)           62
20FTWND-AM(MPH)                 SW  6                   Lgt/Var
20FTWND-PM(MPH)             SW  8 G18      Lgt/Var      Lgt/Var
PRECIP AMOUNT                    0.00         0.00         0.08
PRECIP DURATION                                               1
MIXING HGT(FT-AGL)               2160                      2590
TRANSPORT WND (MPH)             SW 22                      W 15
LAL                                 1            1            1
HAINES INDEX                        4            4            3

REMARKS...None.

.FORECAST FOR DAYS 3 THROUGH 7...
.SUNDAY NIGHT...Cloudy with a chance of rain showers. Lows in the upper
30s. South winds around 5 mph. 
.MONDAY...Cloudy. Highs in the lower 50s. Southwest winds around 5 mph. 
.TUESDAY...Mostly cloudy. Lows in the lower 40s. Highs in the lower 50s.
West winds 5 to 10 mph. 
.WEDNESDAY...Mostly clear. Lows in the upper 20s. Highs in the mid 40s.
West winds 5 to 10 mph. 
.THURSDAY...Partly cloudy. Lows in the lower 30s. Highs in the lower 50s.
South winds around 5 mph. 
.FRIDAY...Mostly cloudy with a chance of showers. Lows in the upper 30s.
Highs in the upper 40s. West winds 5 to 10 mph. 

SPC's Fire Weather Web Tool (Excellent!), SPC's Fire Weather Outlooks, NWS Fire Weather WEB, Fire Danger Class Map,
Keetch-Byram Drought Index, ROMAN Web, Haines Index ,
WFAS's 10-hr Dead Fuel Moist., WFAS's 100-hr Dead Fuel Moist., Probablity of Ignition, Visual blackness Map, Palmer Drought Index, HPC's Rainfall Forecast Maps


Hazardous Weather Outlook For CAMPBELL County, Kentucky
503 AM EST Sat Dec 16 2017

 DAY ONE  Today and Tonight.

No hazardous weather is expected at this time.

 DAYS TWO THROUGH SEVEN  Sunday through Friday.

No hazardous weather is expected at this time.

 SPOTTER INFORMATION STATEMENT  

Spotter activation is not expected at this time.

Latest CAMPBELL County, Kentucky Watches, Warnings and Advisories.
Additional Drought Info.: UKAWC Drought Page, Kentucky Drought Watch


7-Day Forecast For CAMPBELL County, KY

REST OF TONIGHT
Partly cloudy. Lows in the mid 30s. South winds around 5 mph.

SUNDAY
Cloudy. A chance of rain in the afternoon. Highs in the mid 40s. South winds around 5 mph. Chance of rain 50 percent.

SUNDAY NIGHT
Cloudy. Patchy drizzle after midnight. Lows in the upper 30s. South winds around 5 mph.

MONDAY
Cloudy with patchy drizzle. Highs in the upper 40s. Southwest winds 5 to 10 mph.

MONDAY NIGHT
Mostly cloudy with patchy drizzle in the evening, then partly cloudy after midnight. Mild. Lows in the lower 40s. Southwest winds 5 to 10 mph.

TUESDAY
Partly cloudy. Highs in the mid 50s.

TUESDAY NIGHT
Partly cloudy. Lows in the lower 30s.

WEDNESDAY
Partly cloudy. Highs in the mid 40s.

WEDNESDAY NIGHT
Partly cloudy. Lows around 30.

THURSDAY
Partly cloudy. Highs in the lower 50s.

THURSDAY NIGHT
Partly cloudy in the evening, then mostly cloudy with a chance of showers after midnight. Lows in the upper 30s. Chance of rain 40 percent.

FRIDAY
Mostly cloudy with a 40 percent chance of showers. Highs around 50.

FRIDAY NIGHT
Mostly cloudy. Lows in the upper 20s.

SATURDAY
Partly cloudy. Highs around 40.

Ag Weather Center, Department of Biosystems & Agricultural Engineering, University of Kentucky